Regional Weather Roundup
Issued by NWS Charleston, WV

Home | Current Version | Previous Version | Graphics & Text | Print | Product List | Glossary On
Versions: 1 2 3 4 5 6 7 8 9 10 11 12 13 14 15 16 17 18 19 20 21 22 23 24 25 26 27
000
ASUS41 KRLX 171910
RWRRLX
West Virginia Regional Weather Roundup
National Weather Service Charleston WV
300 PM EDT THU APR 17 2014

Note: "fair" indicates few or no clouds below 12,000 feet with no
significant weather and/or obstructions to visibility.

WVZ003-172000-
Northern Panhandle of West Virginia

CITY           SKY/WX    TMP DP  RH WIND       PRES   REMARKS
WHEELING       SUNNY     63  27  25 S13       30.37F
$$

WVZ009-172000-
Northwest West Virginia

CITY           SKY/WX    TMP DP  RH WIND       PRES   REMARKS
PARKERSBURG    SUNNY     66  26  22 VRB7G20   30.39F
$$

WVZ006-172000-
Western West Virginia

CITY           SKY/WX    TMP DP  RH WIND       PRES   REMARKS
HUNTINGTON     SUNNY     68  26  20 CALM      30.35F
$$

WVZ015-172000-
West Central West Virginia

CITY           SKY/WX    TMP DP  RH WIND       PRES   REMARKS
CHARLESTON     MOSUNNY   67  22  18 S7G16     30.36F
$$

WVZ031-172000-
North Central West Virginia

CITY           SKY/WX    TMP DP  RH WIND       PRES   REMARKS
CLARKSBURG     MOSUNNY   64  24  21 VRB7      30.38F
MORGANTOWN     MOSUNNY   64  27  24 NE12      30.39F
$$

WVZ035-042-045-172000-
South Central West Virginia

CITY           SKY/WX    TMP DP  RH WIND       PRES   REMARKS
BECKLEY        SUNNY     57  24  28 E10G17    30.40F
BLUEFIELD      SUNNY     57  21  24 SE10G17   30.42F
LEWISBURG      SUNNY     55  21  26 E3        30.44F
$$

WVZ047-172000-
Northern Mountains of West Virginia

CITY           SKY/WX    TMP DP  RH WIND       PRES   REMARKS
ELKINS         MOSUNNY   64  18  17 S7        30.39F
$$

WVZ052-172000-
Eastern Panhandle of West Virginia

CITY           SKY/WX    TMP DP  RH WIND       PRES   REMARKS
MARTINSBURG    SUNNY     54  22  28 SE9G16    30.55F
PETERSBURG     SUNNY     61  31  32 CALM      30.49F
$$



USA.gov is the U.S. government's official web portal to all federal, state and local government web resources and services.